Regional Weather Roundup
Issued by NWS

Home | Current Version | Previous Version | Text Only | Print | Product List | Glossary On
Versions: 1 2 3 4 5 6 7 8 9 10 11 12 13 14 15 16 17 18 19 20 21 22 23 24 25 26 27 28 29 30 31 32 33 34 35 36 37 38 39 40 41 42 43 44 45 46 47 48 49 50
000
ASUS43 KMKX 180959
RWRWI

WISCONSIN REGIONAL WEATHER ROUNDUP
NATIONAL WEATHER SERVICE MILWAUKEE/SULLIVAN WI
400 AM CST MON DEC 18 2017

NOTE: "FAIR" INDICATES FEW OR NO CLOUDS BELOW 12,000 FEET WITH NO
SIGNIFICANT WEATHER AND/OR OBSTRUCTIONS TO VISIBILITY.

WIZ001-002-006>008-014>016-023>028-181100-
NORTHWEST WISCONSIN

CITY           SKY/WX    TMP DP  RH WIND       PRES   REMARKS
SUPERIOR ARPT  CLOUDY    25  22  89 SW6       29.82F WCI  18
ASHLAND        CLOUDY    27  23  85 SW9       29.83F WCI  18
HAYWARD        CLOUDY    26  24  92 SW7       29.82F FOG     WCI  18
SIREN          CLOUDY    25  24  94 S3        29.85F FOG
CUMBERLAND     FOG       25  23  93 S6        29.84F VSB 1/4 WCI  18
RICE LAKE      FOG       26  26  99 CALM      29.86F VSB 1/2
CHETEK         CLOUDY    25  25  98 SW3       29.87F
LADYSMITH      FOG       27  26  98 SW7       29.87F VSB 3/4 WCI  19
EAU CLAIRE     NOT AVBL
MENOMONIE      CLOUDY    28  27  99 SW3       29.88F FOG
NEW RICHMOND   CLOUDY    26  25  98 SW6       29.87F FOG     WCI  19
OSCEOLA        CLOUDY    26  26 100 S7        29.90S FOG     WCI  18
$$

WIZ003>005-009-010-017-018-181100-
NORTH CENTRAL WISCONSIN

CITY           SKY/WX    TMP DP  RH WIND       PRES   REMARKS
MANITOWISH WTR CLOUDY    24  24 100 SW5       29.80F FOG     WCI  18
ARBOR VITAE    CLOUDY    27  26  96 SW5       29.81F FOG     WCI  21
WOODRUFF       CLOUDY    27  26  96 SW5       29.81F FOG     WCI  21
RHINELANDER    CLOUDY    25  25 100 SW7       29.82F FOG     WCI  17
EAGLE RIVER    CLOUDY    25  25 100 SW6       29.80F FOG     WCI  18
LAND O LAKES   CLOUDY    25  25  98 SW3       29.82F FOG
PHILLIPS       CLOUDY    25  25 100 SW6       29.82F FOG     WCI  18
TOMAHAWK       CLOUDY    25  24  96 CALM      29.84F FOG
MEDFORD        FOG       25  24  96 SW3       29.84S VSB 1/2
MERRILL        CLOUDY    26  26 100 W3        29.86S FOG
$$

WIZ029-030-035-036-043>047-181100-
CENTRAL WISCONSIN

CITY           SKY/WX    TMP DP  RH WIND       PRES   REMARKS
WAUSAU         CLOUDY    26  26 100 W6        29.85S FOG     WCI  19
MOSINEE        FOG       28  28 100 SW7       29.87F VSB 1   WCI  21
MARSHFIELD     FOG       27  27 100 W5        29.85F VSB 3/4 WCI  22
STEVENS POINT  CLOUDY    26  26 100 W3        29.88F FOG
WAUPACA        CLOUDY    31  29  92 CALM      29.89S FOG
WAUTOMA        CLOUDY    29  28  96 SW3       29.89F FOG
WISC RAPIDS    CLOUDY    28  27  96 W3        29.89F FOG
CAMP DOUGLAS   CLOUDY    30  30 100 W3        29.89F
$$

WIZ011>013-019>022-031-037>040-048>050-181100-
NORTHEAST WISCONSIN

CITY           SKY/WX    TMP DP  RH WIND       PRES   REMARKS
ANTIGO         FOG       24  24 100 SW6       29.84F VSB 1/2 WCI  17
SHAWANO        CLOUDY    30  28  94 W6        29.87F FOG     WCI  24
OCONTO         CLOUDY    28  27  94 W7        29.89S WCI  21
STURGEON BAY   CLOUDY    28  27  96 W5        29.88F FOG     WCI  23
GREEN BAY      CLOUDY    30  26  85 W9        29.89S FOG     WCI  22
MANITOWOC      CLOUDY    30  28  92 W5        29.90F FOG     WCI  25
APPLETON       CLOUDY    30  30 100 W7        29.87F FOG     WCI  23
CLINTONVILLE   CLOUDY    28  28 100 W5        29.88F FOG     WCI  23
OSHKOSH        CLOUDY    30  29  96 S3        29.89S FOG
$$

WIZ032>034-041-042-053>061-181100-
SOUTHWEST WISCONSIN

CITY           SKY/WX    TMP DP  RH WIND       PRES   REMARKS
LA CROSSE      CLOUDY    31  29  92 W5        29.91S FOG     WCI  26
SPARTA         CLOUDY    29  28  98 CALM      29.91F FOG
VIROQUA        CLOUDY    30  30 100 CALM      29.88F
BOSCOBEL       CLOUDY    33  29  85 S5        29.92S FOG     WCI  29
PRAIRIE DU CHI CLOUDY    32  29  90 CALM      29.92S FOG
PLATTEVILLE    CLOUDY    34  34 100 W9        29.91S VSB 3/4 WCI  26
$$

WIZ056-057-062-063-064-067-068-181100-
SOUTH CENTRAL WISCONSIN

CITY           SKY/WX    TMP DP  RH WIND       PRES   REMARKS
REEDSBURG      CLOUDY    31  31 100 CALM      29.89F FOG
BARABOO/DELLS  CLOUDY    30  29  95 CALM      29.89F FOG
LONE ROCK      CLOUDY    32  31  96 SW3       29.92R FOG
MINERAL POINT  CLOUDY    34  34 100 W8        29.90S FOG     WCI  27
MADISON        FOG       32  32 100 CALM      29.91S VSB 1
MIDDLETON      CLOUDY    34  34 100 CALM      29.90S
WATERTOWN      LGT RAIN  32  32 100 NW3       29.90R
MONROE         SNOW      34  34 100 SW7       29.90R VSB 1/4 WCI  28
JANESVILLE     FOG       36  36 100 SW6       29.91R VSB 1/2 WCI  31
$$

WIZ051-052-058>065-066-070>072-181100-
SOUTHEAST WISCONSIN

CITY           SKY/WX    TMP DP  RH WIND       PRES   REMARKS
MILWAUKEE      DRZL/FOG  35  34  96 SW5       29.91S VSB 1   WCI  31
WAUKESHA       CLOUDY    32  32 100 CALM      29.90S FOG
MILWAUKEE/TIMM CLOUDY    32  30  93 CALM      29.91S FOG
RACINE         CLOUDY    35  34  96 CALM      29.92F FOG
BURLINGTON     FOG       46  46 100 CALM      29.91S VSB 1
KENOSHA        FOG       37  34  89 CALM      29.90F VSB 1/2
FOND DU LAC    FOG       31  28  89 S3        29.89F VSB 1/4
SHEBOYGAN      CLOUDY    30  30 100 CALM      29.89F FOG
WEST BEND      MIX PCPN  32  32 100 CALM      29.90R
JUNEAU         FOG       31  30  98 CALM      29.91R VSB 3/4
$$

LSZ147-162-181100-
LAKE SUPERIOR

STATION/POSITION TIME  TEMP    WIND        PRES    WAVE
                       AIR SEA DIR/SP/G            HT/PER
                 (UTC) (F)     (DEG/KT/KT) (MB)    (FT/S)
DEVILS ISLAND    0900   27     220/ 17/ 20 1011.3F
SAXON HARBOR     0940   28                 1010.2F
$$

LMZ867-665-643>646-181100-
LAKE MICHIGAN

STATION/POSITION TIME  TEMP    WIND        PRES    WAVE
                       AIR SEA DIR/SP/G            HT/PER
                 (UTC) (F)     (DEG/KT/KT) (MB)    (FT/S)
NORTHPORT PIER   0940   30        CALM     1011.5F
KEWAUNEE LAKESHO 0930   30     260/  5/  7 1011.6S
SHEBOYGAN LAKESH 0900   31     280/  2/  3 1013.5F
PORT WASHINGTON  0940   33      CALM  /  2 1013.9S
MILWAUKEE LAKESH 0930   34     210/  2/  3   N/A
KENOSHA   LAKESH 0900   35     350/  2/  2 1013.2
$$

TC  - TEMPERATURE IN CELSIUS
VSB - VISIBILITY IN STATUTE MILES
WCI - WIND CHILL INDEX
HX  - HEAT INDEX




USA.gov is the U.S. government's official web portal to all federal, state and local government web resources and services.